• MPC Preparation (Info)

  • MPEC 2016-H57 : 2016 HF3

    The following Minor Planet Electronic Circular may be linked-to from your own Web pages, but must not otherwise be redistributed electronically.

    A form allowing access to any MPEC is at the bottom of this page.


    Read MPEC 2016-H56 Read MPEC 2016-H58


    M.P.E.C. 2016-H57                                Issued 2016 Apr. 28, 22:44 UT
    
         The Minor Planet Electronic Circulars contain information on unusual
             minor planets and routine data on comets.  They are published
        on behalf of Division F of the International Astronomical Union by the
              Minor Planet Center, Smithsonian Astrophysical Observatory,
                              Cambridge, MA 02138, U.S.A.
    
                 Prepared using the Tamkin Foundation Computer Network
    
                                  MPC@CFA.HARVARD.EDU
                URL https://www.minorplanetcenter.net/    ISSN 1523-6714
    
                                       2016 HF3
    
    Observations:
         K16H03F* C2016 04 27.30971 12 57 03.824+26 10 30.21         21.1 wLEH057F51
         K16H03F  C2016 04 27.32129 12 57 04.632+26 10 24.52         20.8 wLEH057F51
         K16H03F  C2016 04 27.33290 12 57 05.431+26 10 18.58         20.9 wLEH057F51
         K16H03F  C2016 04 27.34457 12 57 06.218+26 10 12.46         20.9 wLEH057F51
         K16H03F  C2016 04 28.30207 12 58 50.85 +25 59 33.9          20.7 RoEH057926
         K16H03F  C2016 04 28.31475 12 58 51.90 +25 59 24.2          20.1 RoEH057926
         K16H03F  C2016 04 28.33181 12 58 53.35 +25 59 10.1          20.0 RoEH057926
         K16H03F KC2016 04 28.89509 13 00 07.14 +25 51 44.3          20.0 VqEH057I93
         K16H03F KC2016 04 28.90188 13 00 07.79 +25 51 39.1          20.3 VqEH057I93
         K16H03F KC2016 04 28.91489 13 00 08.98 +25 51 29.2          20.1 VqEH057I93
    
    Observer details:
    926 Tenagra II Observatory.  Observers M. Schwartz, P. R. Holvorcem.  Measurer
        M. Schwartz.  0.81-m f/7 Ritchey-Chretien + CCD.
    F51 Pan-STARRS 1, Haleakala.  Observers B. Gibson, T. Goggia, N. Primak,
        A. Schultz, M. Willman.  Measurers K. Chambers, S. Chastel, L. Denneau,
        H. Flewelling, M. Huber, E. Lilly, E. Magnier, R. Wainscoat, C. Waters,
        R. Weryk.  1.8-m Ritchey-Chretien + CCD.
    I93 St Pardon de Conques.  Observer F. Losse.  0.40-m f/3.7 reflector + CCD.
    
    Orbital elements:
    2016 HF3                                                 Earth MOID = 0.0192 AU
    Epoch 2016 July 31.0 TT = JDT 2457600.5                 MPC
    M  22.47788              (2000.0)            P               Q
    n   0.32984572     Peri.  185.47667     -0.43483958     +0.89573034
    a   2.0745734      Node    58.77880     -0.82203293     -0.35283818
    e   0.5031819      Incl.    6.21883     -0.36766343     -0.27050392
    P   2.99           H   24.0           G   0.15           U   5
    Residuals in seconds of arc
    160427 F51  0.0   0.0     160428 926  0.2+  0.1-    160428 I93  0.2+  0.1-
    160427 F51  0.0   0.0     160428 926  0.0   0.3+    160428 I93  0.5-  0.1-
    160427 F51  0.0   0.0     160428 926  0.1-  0.2+
    160427 F51  0.1-  0.1+    160428 I93  0.2+  0.1-
    
    Ephemeris:
    2016 HF3                 a,e,i = 2.07, 0.50, 6                   q = 1.0307
    Date    TT    R. A. (2000) Decl.     Delta      r     Elong.  Phase     V
    2016 03 29    12 43 03.2 +23 17 56   0.2411  1.2184   153.2    21.7    22.4
    ...
    2016 04 13    12 44 42.9 +26 05 14   0.1628  1.1377   143.5    31.7    21.7
    ...
    2016 04 21    12 49 02.0 +26 37 22   0.1256  1.1018   138.2    37.4    21.2
    ...
    2016 04 27    12 56 28.9 +26 13 19   0.09889 1.0791   135.3    41.0    20.8
    2016 04 28    12 58 17.5 +26 03 14   0.09451 1.0756   134.9    41.5    20.7
    2016 04 29    13 00 19.0 +25 50 52   0.09014 1.0723   134.6    42.0    20.6
    ...
    2016 05 05    13 19 03.6 +23 25 04   0.06448 1.0549   134.7    42.9    19.8
    ...
    2016 05 13    14 27 06.8 +11 12 19   0.03335 1.0388   147.7    31.4    18.0
    ...
    2016 05 28    21 34 34.1 -41 28 13   0.04623 1.0319   112.3    65.3    19.7
    
    A. U. Tomatic                (C) Copyright 2016 MPC           M.P.E.C. 2016-H57
    

    Read MPEC 2016-H56 Read MPEC 2016-H58


    MPEC number:

    Enter an MPEC number in one of the following forms:

    • 1997-B01 (the full form)
    • J97B01 (the packed version of the full form)
    • B01 (the abbreviated form)